TITAN 3C TRANSTAGE DEB

基本信息
目录编号:
38691
目录名称:
TITAN 3C TRANSTAGE DEB
国际标识:
1968-081R
轨道中心:
EARTH
物体状态:
在轨
发射日期:
1968-09-26 UTC
轨道信息
数据来源: 国际轨道数据
星历时间: 2026-07-13T06:36:32+0800
半长轴: 42043.082km
偏心率: 0.0189563
轨道倾角: 2.456°
近地点辐角: 261.762°
升交点赤经: 49.055°
平近点角: 95.930°
近地点: 34867.963km
远地点: 36461.927km
周期: 1429.886分钟
每日圈数: 1.007073
详细信息
发射场:
AFETR
轨道高度:
MEO
数据来源:
AOE Integration Group
参考系:
TEME
时间系统:
UTC
历元类型:
SGP4
2D轨道图
3D轨道图
轨道高度分析图
轨道倾角分析图
轨道综合分析图
查看轨道综合分析图